DW7680 Weather Reports


Display with metric or nautical units.
time (UTC)temp
F
wind
direction
speed
MPH
gust
MPH
rain 1hr
in
rain 24hr
in
rain mn
in
humidity
%
barometer
mb
20260506153100 52 257 7.0 21.0 0.00 0.00 0.00 32 1011.3
20260506153001 52 317 7.0 21.0 0.00 0.00 0.00 32 1011.3
20260506151502 51 319 10.0 19.0 0.00 0.00 0.00 35 1011.1
20260506150003 50 238 12.0 21.0 0.00 0.00 0.00 40 1011.1
20260506144610 50 280 11.0 20.0 0.00 0.00 0.00 40 1011.3
20260506143001 49 232 9.0 31.0 0.00 0.00 0.00 43 1011.2
20260506141600 49 255 12.0 27.0 0.00 0.00 0.00 42 1011.1
20260506141503 49 248 14.0 27.0 0.00 0.00 0.00 43 1011.1
20260506140100 49 251 8.0 18.0 0.00 0.00 0.00 44 1011.3
20260506140002 49 247 7.0 18.0 0.00 0.00 0.00 46 1011.3
20260506134600 48 249 9.0 18.0 0.00 0.00 0.00 47 1011.1
20260506134501 48 236 8.0 14.0 0.00 0.00 0.00 47 1011.0
20260506133002 48 258 6.0 11.0 0.00 0.00 0.00 51 1010.9
20260506131502 47 258 7.0 12.0 0.00 0.00 0.00 53 1010.6
20260506130002 46 242 7.0 14.0 0.00 0.00 0.00 54 1010.6
20260506124601 46 263 3.0 16.0 0.00 0.00 0.00 55 1010.7
20260506123101 45 271 3.0 13.0 0.00 0.00 0.00 55 1010.5
20260506123001 45 266 4.0 13.0 0.00 0.00 0.00 56 1010.5
20260506121501 45 234 2.0 8.0 0.00 0.00 0.00 56 1010.1
20260506120004 45 240 0.0 7.0 0.00 0.00 0.00 55 1009.9
20260506114500 45 241 1.0 4.0 0.00 0.00 0.00 55 1009.7
20260506113101 46 294 2.0 7.0 0.00 0.00 0.00 54 1009.8
20260506113001 46 271 2.0 8.0 0.00 0.00 0.00 54 1009.8
20260506111601 46 292 2.0 9.0 0.00 0.00 0.00 54 1009.7
20260506110114 46 240 2.0 11.0 0.00 0.00 0.00 55 1009.7
20260506110002 46 240 2.0 11.0 0.00 0.00 0.00 55 1009.7
20260506104615 47 290 3.0 11.0 0.00 0.00 0.00 55 1009.4
20260506104500 47 276 3.0 11.0 0.00 0.00 0.00 55 1009.3
20260506103005 46 261 2.0 7.0 0.00 0.00 0.00 55 1009.1
20260506101504 47 219 2.0 11.0 0.00 0.00 0.00 55 1008.9
20260506100002 47 281 1.0 5.0 0.00 0.00 0.00 54 1008.8
20260506094501 47 271 1.0 5.0 0.00 0.00 0.00 53 1008.8
20260506093001 48 275 3.0 13.0 0.00 0.00 0.00 52 1008.7
20260506091502 48 232 1.0 9.0 0.00 0.00 0.00 52 1008.7
20260506090004 49 248 1.0 11.0 0.00 0.00 0.00 50 1008.6
20260506084503 49 269 2.0 15.0 0.00 0.00 0.00 48 1008.5
20260506083003 49 261 5.0 14.0 0.00 0.00 0.00 47 1008.5
20260506081503 50 240 5.0 10.0 0.00 0.00 0.00 45 1008.5
20260506073002 51 250 3.0 10.0 0.00 0.00 0.00 41 1008.3
20260506071502 51 248 4.0 10.0 0.00 0.00 0.00 39 1008.2
20260506061503 53 234 10.0 18.0 0.00 0.00 0.00 36 1007.7
20260506044503 54 215 4.0 14.0 0.00 0.00 0.00 42 1007.5
20260506043003 54 245 4.0 14.0 0.00 0.00 0.00 43 1007.3
20260506041503 54 255 6.0 15.0 0.00 0.00 0.00 44 1007.1
20260506040004 54 255 5.0 10.0 0.00 0.00 0.00 46 1007.0
20260506034504 54 234 5.0 12.0 0.00 0.00 0.00 45 1006.8
20260506033006 54 243 7.0 14.0 0.00 0.00 0.00 45 1006.6
20260506031504 55 236 8.0 20.0 0.00 0.00 0.00 44 1006.3
20260506030004 55 259 9.0 22.0 0.00 0.00 0.00 44 1006.1
20260506024503 55 246 9.0 21.0 0.00 0.00 0.00 43 1006.1
20260506023003 55 237 7.0 17.0 0.00 0.00 0.00 44 1005.9
20260506021502 55 223 9.0 21.0 0.00 0.00 0.00 44 1005.6
20260506020005 55 305 9.0 23.0 0.00 0.00 0.00 45 1005.5
20260506014504 55 264 12.0 19.0 0.00 0.00 0.00 45 1005.4
20260506013004 55 246 10.0 28.0 0.00 0.00 0.00 45 1005.2
20260506011507 55 254 11.0 24.0 0.00 0.00 0.00 46 1005.1
20260506010005 55 227 14.0 23.0 0.00 0.00 0.00 46 1005.1
20260506004503 55 217 10.0 24.0 0.00 0.00 0.00 48 1004.9
20260506003003 55 256 13.0 24.0 0.00 0.00 0.00 50 1005.0
20260506001503 56 234 13.0 24.0 0.00 0.00 0.00 50 1004.8
20260506000005 56 216 12.0 24.0 0.00 0.00 0.00 49 1004.6
20260505234503 56 240 13.0 28.0 0.00 0.00 0.00 51 1004.7
20260505233003 56 260 11.0 29.0 0.00 0.00 0.00 51 1004.6
20260505231503 56 246 15.0 32.0 0.00 0.00 0.00 50 1004.4
20260505230010 56 224 17.0 38.0 0.00 0.00 0.00 50 1004.4
20260505224502 56 259 16.0 31.0 0.00 0.00 0.00 52 1004.4
20260505223003 56 240 18.0 32.0 0.00 0.00 0.00 52 1004.3
20260505221503 56 231 19.0 38.0 0.00 0.00 0.00 52 1004.5
20260505220004 56 286 12.0 29.0 0.00 0.00 0.00 50 1004.6
20260505214502 56 260 18.0 30.0 0.00 0.00 0.00 51 1004.6
20260505213007 56 244 13.0 33.0 0.00 0.00 0.00 52 1004.8
20260505211508 55 243 18.0 37.0 0.00 0.00 0.00 55 1005.2
20260505210004 55 240 13.0 30.0 0.00 0.00 0.00 56 1005.2
20260505204503 54 276 16.0 32.0 0.00 0.00 0.00 60 1005.2
20260505203002 53 253 18.0 33.0 0.00 0.00 0.00 63 1005.4
20260505201502 54 277 11.0 21.0 0.00 0.00 0.00 60 1005.2
20260505200007 51 277 12.0 25.0 0.00 0.00 0.00 66 1005.4
20260505194502 52 235 16.0 33.0 0.00 0.00 0.00 68 1005.7
20260505193003 53 240 16.0 30.0 0.00 0.00 0.00 65 1005.5
20260505191509 54 269 11.0 25.0 0.00 0.00 0.00 58 1005.4
20260505190010 54 286 17.0 30.0 0.00 0.00 0.00 55 1005.4
20260505184507 58 255 15.0 30.0 0.00 0.00 0.00 46 1005.0
20260505183011 59 253 17.0 33.0 0.00 0.00 0.00 45 1004.6
20260505181503 57 254 21.0 41.0 0.00 0.00 0.00 45 1005.0
20260505180003 59 267 14.0 35.0 0.00 0.00 0.00 44 1004.7
20260505174506 57 250 20.0 39.0 0.00 0.00 0.00 44 1005.0
20260505173002 58 213 13.0 30.0 0.00 0.00 0.00 42 1005.1
20260505171506 58 263 13.0 32.0 0.00 0.00 0.00 38 1005.2
20260505170004 58 248 10.0 27.0 0.00 0.00 0.00 39 1005.4
20260505164503 57 257 16.0 32.0 0.00 0.00 0.00 39 1005.1
20260505163002 57 287 11.0 22.0 0.00 0.00 0.00 37 1005.3
20260505161502 57 285 7.0 18.0 0.00 0.00 0.00 38 1005.3